1483905600.29,37287,4.44,72532.3,-21.29,-57.29,-57.53,0,*6C
1483905601.51,37288,4.38,72542.8,-21.29,-57.21,-57.45,0,*6C
1483905602.73,37289,4.38,72544.3,-21.29,-56.99,-57.21,0,*6D
1483905603.95,37290,4.38,72556.0,-21.29,-56.99,-57.29,0,*6D
1483905605.17,37291,4.44,72556.8,-21.29,-56.91,-57.21,0,*6C
1483905606.38,37292,4.38,72554.3,-21.29,-56.99,-57.29,0,*6F
1483905607.6,37293,4.38,72548.0,-21.29,-56.99,-57.21,0,*66
1483905608.85,37294,4.38,72544.3,-21.31,-57.29,-57.37,0,*65
1483905610.07,37295,4.38,72538.3,-21.29,-57.21,-57.29,0,*6A
1483905611.29,37296,4.44,72548.5,-21.29,-56.99,-57.45,0,*61
1483905612.51,37297,4.38,72544.5,-21.29,-56.91,-57.21,0,*6A
1483905613.78,37298,4.44,72546.8,-21.27,-56.51,-56.99,0,*65
1483905614.99,37299,4.38,72534.5,-21.29,-56.67,-57.15,0,*6A
1483905616.24,37300,4.38,72536.3,-21.27,-56.91,-56.99,0,*69
1483905617.47,37301,4.44,72534.5,-21.27,-56.99,-57.29,0,*6A
1483905618.72,37302,4.44,72542.3,-21.27,-57.15,-57.29,0,*6C
1483905619.94,37303,4.44,72538.8,-21.29,-57.21,-57.45,0,*6E
1483905621.16,37304,4.38,72544.0,-21.29,-56.99,-57.29,0,*61
1483905622.38,37305,4.38,72562.3,-21.29,-57.15,-57.29,0,*65
1483905623.6,37306,4.38,72582.5,-21.29,-56.75,-57.21,0,*69
1483905624.81,37307,4.38,72594.5,-21.29,-56.67,-56.99,0,*69
1483905626.03,37308,4.38,72560.0,-21.29,-56.67,-57.15,0,*63
1483905627.26,37309,4.38,72554.5,-21.29,-56.75,-56.91,0,*6C
1483905628.51,37310,4.38,72586.8,-21.29,-56.43,-56.75,0,*6B
1483905629.76,37311,4.44,72542.8,-21.29,-56.43,-56.75,0,*6A
1483905631.01,37312,4.44,72504.8,-21.25,-56.51,-56.99,0,*64
1483905632.23,37313,4.38,72510.5,-21.25,-56.67,-57.15,0,*65
1483905633.47,37314,4.38,72546.0,-21.27,-56.67,-57.15,0,*60
1483905634.71,37315,4.38,72570.0,-21.27,-56.91,-57.15,0,*68
1483905635.96,37316,4.38,72526.8,-21.27,-56.99,-57.21,0,*64
1483905637.2,37317,4.38,72546.0,-21.27,-56.91,-57.21,0,*6D
1483905638.45,37318,4.44,72564.5,-21.27,-56.75,-56.99,0,*6A
1483905639.69,37319,4.38,72566.3,-21.27,-56.91,-57.45,0,*61
1483905640.93,37320,4.44,72558.5,-21.27,-56.99,-57.21,0,*61
1483905642.17,37321,4.38,72572.8,-21.27,-56.91,-57.29,0,*60
1483905643.41,37322,4.44,72560.5,-21.27,-56.91,-57.21,0,*6B
1483905644.65,37323,4.44,72560.5,-21.27,-56.91,-57.29,0,*62
1483905645.9,37324,4.38,72566.8,-21.27,-56.91,-57.21,0,*6D
1483905647.14,37325,4.44,72594.5,-21.27,-56.99,-57.29,0,*6C
1483905648.35,37326,4.38,72576.8,-21.25,-56.99,-57.29,0,*6D
1483905649.59,37327,4.44,72582.0,-21.27,-56.99,-57.21,0,*66
1483905650.83,37328,4.38,72580.5,-21.27,-56.99,-57.29,0,*61
1483905652.1,37329,4.44,72580.8,-21.27,-57.15,-57.53,0,*68
1483905653.35,37330,4.44,72588.8,-21.25,-56.99,-57.53,0,*67
1483905654.59,37331,4.38,72578.5,-21.27,-56.91,-57.29,0,*61
1483905655.83,37332,4.44,72572.0,-21.27,-56.91,-57.21,0,*6A
1483905657.07,37333,4.38,72568.3,-21.27,-56.67,-57.21,0,*62
1483905658.32,37334,4.38,72564.8,-21.27,-56.75,-57.15,0,*61
1483905659.57,37335,4.38,72584.0,-21.25,-56.43,-56.91,0,*6A
1483905660.81,37336,4.44,72590.3,-21.27,-56.21,-56.67,0,*66
1483905662.05,37337,4.38,72588.8,-21.25,-55.97,-56.21,0,*69
1483905663.3,37338,4.38,72592.0,-21.25,-56.21,-56.51,0,*6F
1483905664.57,37339,4.38,72564.3,-21.25,-55.43,-55.67,0,*6F
1483905665.85,37340,4.38,72524.3,-21.25,-55.21,-55.51,0,*60
1483905667.12,37341,4.38,72484.5,-21.25,-55.51,-55.97,0,*6C
1483905668.38,37342,4.44,72480.8,-21.21,-55.67,-55.89,0,*61
1483905669.63,37343,4.38,72490.5,-21.21,-55.89,-56.21,0,*61
1483905670.92,37344,4.38,72494.8,-21.19,-55.75,-55.89,0,*6F
1483905672.21,37345,4.38,72488.3,-21.19,-55.67,-55.97,0,*62
1483905673.5,37346,4.38,72484.3,-21.19,-54.97,-55.21,0,*62
1483905674.75,37347,4.38,72482.5,-21.17,-55.29,-55.51,0,*6E
1483905676.04,37348,4.38,72484.8,-21.15,-55.59,-56.05,0,*66
1483905677.33,37349,4.38,72470.8,-21.15,-56.13,-56.51,0,*6B
1483905678.55,37350,4.44,72458.0,-21.13,-56.21,-56.67,0,*61
1483905679.82,37351,4.44,72464.5,-21.15,-56.29,-56.51,0,*6B
1483905681.08,37352,4.38,72460.5,-21.15,-56.37,-56.83,0,*68
1483905682.32,37353,4.38,72464.3,-21.15,-56.59,-56.99,0,*6A
1483905683.55,37354,4.38,72466.8,-21.17,-56.83,-57.07,0,*6E
1483905684.8,37355,4.38,72472.8,-21.15,-56.99,-57.15,0,*65
1483905686.01,37356,4.44,72472.3,-21.13,-56.67,-56.99,0,*64
1483905687.23,37357,4.38,72480.3,-21.13,-56.75,-56.99,0,*66
1483905688.45,37358,4.38,72476.8,-21.13,-56.75,-56.99,0,*69
1483905689.67,37359,4.38,72488.8,-21.13,-56.75,-57.07,0,*6E
1483905690.89,37360,4.38,72488.8,-21.13,-56.99,-57.21,0,*62
1483905692.13,37361,4.38,72500.0,-21.13,-57.21,-57.53,0,*64
1483905693.41,37362,4.38,72502.3,-21.15,-57.15,-57.53,0,*66
1483905694.65,37363,4.44,72506.0,-21.17,-57.37,-57.61,0,*64
1483905695.92,37364,4.38,72498.3,-21.15,-57.15,-57.53,0,*60
1483905697.14,37365,4.44,72508.3,-21.17,-56.99,-57.29,0,*6B
1483905698.39,37366,4.38,72502.3,-21.15,-56.83,-57.15,0,*6E
1483905699.66,37367,4.44,72508.8,-21.15,-57.15,-57.53,0,*63
1483905700.9,37368,4.38,72502.8,-21.17,-57.15,-57.61,0,*6F
1483905702.15,37369,4.44,72518.8,-21.17,-57.37,-57.61,0,*6E
1483905703.39,37370,4.38,72520.5,-21.17,-57.37,-57.61,0,*66
1483905704.6,37371,4.38,72534.8,-21.17,-57.37,-57.85,0,*6D
1483905705.88,37372,4.38,72524.8,-21.17,-57.53,-57.77,0,*61
1483905707.15,37373,4.38,72526.0,-21.19,-57.45,-57.69,0,*66
1483905708.42,37374,4.44,72518.3,-21.19,-57.61,-57.85,0,*65
1483905709.68,37375,4.38,72520.5,-21.19,-57.61,-57.93,0,*63
1483905710.95,37376,4.38,72526.0,-21.19,-57.69,-57.93,0,*68
1483905712.17,37377,4.44,72532.8,-21.21,-57.15,-57.45,0,*62
1483905713.44,37378,4.38,72532.0,-21.19,-57.37,-57.61,0,*60
1483905714.71,37379,4.38,72528.5,-21.19,-57.37,-57.61,0,*61
1483905715.95,37380,4.38,72536.3,-21.21,-57.45,-57.69,0,*61
1483905717.19,37381,4.38,72538.8,-21.19,-57.45,-57.93,0,*6E
1483905718.44,37382,4.44,72532.8,-21.21,-57.45,-57.69,0,*63
1483905719.68,37383,4.38,72528.3,-21.21,-57.45,-57.69,0,*62
1483905720.95,37384,4.44,72534.0,-21.19,-57.37,-57.69,0,*6B
1483905722.2,37385,4.38,72530.8,-21.21,-57.21,-57.69,0,*66
1483905723.41,37386,4.38,72532.8,-21.21,-57.15,-57.45,0,*6C
1483905724.63,37387,4.38,72536.3,-21.21,-57.15,-57.45,0,*6D
1483905725.88,37388,4.38,72532.8,-21.19,-57.15,-57.45,0,*69
1483905727.1,37389,4.44,72540.5,-21.21,-57.15,-57.45,0,*63
1483905728.34,37390,4.38,72550.5,-21.21,-57.37,-57.61,0,*6D
1483905729.56,37391,4.38,72552.0,-21.21,-57.21,-57.45,0,*6D
1483905730.81,37392,4.38,72556.0,-21.21,-57.21,-57.61,0,*68
1483905732.02,37393,4.38,72564.5,-21.21,-57.15,-57.45,0,*68
1483905733.24,37394,4.44,72572.0,-21.21,-57.15,-57.45,0,*6F
1483905734.49,37395,4.38,72558.5,-21.25,-57.29,-57.69,0,*6B
1483905735.71,37396,4.38,72558.3,-21.25,-57.15,-57.45,0,*69
1483905736.98,37397,4.44,72570.8,-21.27,-57.45,-57.77,0,*6E
1483905738.22,37398,4.38,72568.8,-21.25,-57.29,-57.69,0,*66
1483905739.43,37399,4.38,72564.5,-21.21,-57.45,-57.93,0,*6C
1483905740.68,37400,4.38,72562.5,-21.25,-57.69,-57.93,0,*61
1483905741.95,37401,4.38,72566.3,-21.27,-57.53,-57.93,0,*6B
1483905743.22,37402,4.44,72560.0,-21.27,-57.53,-57.93,0,*68
1483905744.49,37403,4.38,72554.8,-21.27,-57.69,-57.93,0,*60
1483905745.79,37404,4.44,72556.0,-21.27,-57.53,-57.77,0,*64
1483905747.06,37405,4.38,72550.3,-21.27,-57.45,-57.69,0,*6D
1483905748.34,37406,4.38,72554.0,-21.27,-57.69,-57.93,0,*65
1483905749.61,37407,4.44,72558.0,-21.27,-57.53,-57.93,0,*6D
1483905750.85,37408,4.38,72554.0,-21.29,-57.29,-57.53,0,*6D
1483905752.09,37409,4.38,72552.0,-21.29,-57.29,-57.53,0,*6C
1483905753.32,37410,4.38,72554.0,-21.29,-57.15,-57.45,0,*6C
1483905754.56,37411,4.38,72564.0,-21.29,-57.45,-57.69,0,*66
1483905755.81,37412,4.38,72570.0,-21.29,-57.37,-57.77,0,*6F
1483905757.06,37413,4.38,72564.0,-21.29,-57.21,-57.53,0,*6F
1483905758.36,37414,4.38,72552.0,-21.31,-57.53,-57.61,0,*65
1483905759.6,37415,4.38,72560.5,-21.29,-57.29,-57.53,0,*61
1483905760.85,37416,4.44,72554.0,-21.29,-57.21,-57.53,0,*6A
1483905762.1,37417,4.44,72542.8,-21.29,-57.45,-57.69,0,*60
1483905763.35,37418,4.38,72548.3,-21.29,-57.37,-57.77,0,*65
1483905764.62,37419,4.38,72554.8,-21.31,-57.29,-57.61,0,*65
1483905765.92,37420,4.38,72544.3,-21.31,-57.53,-57.77,0,*65
1483905767.2,37421,4.38,72536.3,-21.31,-57.21,-57.53,0,*67
1483905768.42,37422,4.38,72544.5,-21.29,-57.21,-57.37,0,*6F
1483905769.67,37423,4.44,72568.0,-21.31,-57.07,-57.29,0,*6C
1483905770.92,37424,4.38,72540.5,-21.31,-57.07,-57.29,0,*6B
1483905772.17,37425,4.38,72534.0,-21.31,-56.83,-57.29,0,*67
1483905773.4,37426,4.38,72540.3,-21.29,-56.75,-57.15,0,*6B
1483905774.64,37427,4.38,72532.3,-21.31,-56.99,-57.37,0,*61
1483905775.89,37428,4.38,72532.8,-21.31,-56.99,-57.29,0,*61
1483905777.11,37429,4.44,72528.0,-21.29,-56.91,-57.21,0,*69
1483905778.37,37430,4.38,72540.5,-21.31,-56.83,-57.07,0,*6F
1483905779.63,37431,4.38,72550.8,-21.31,-56.75,-57.07,0,*67
1483905780.87,37432,4.38,72546.8,-21.31,-56.99,-57.37,0,*65
1483905782.09,37433,4.38,72534.0,-21.29,-56.99,-57.21,0,*6A
1483905783.31,37434,4.38,72552.5,-21.29,-56.67,-57.15,0,*6B
1483905784.56,37435,4.38,72550.3,-21.31,-56.83,-57.21,0,*6E
1483905785.81,37436,4.38,72538.5,-21.31,-57.21,-57.29,0,*6C
1483905787.03,37437,4.38,72534.3,-21.29,-56.99,-57.21,0,*6E
1483905788.28,37438,4.38,72540.3,-21.31,-56.99,-57.29,0,*60
1483905789.55,37439,4.38,72542.0,-21.31,-57.29,-57.77,0,*60
1483905790.83,37440,4.38,72536.3,-21.31,-57.37,-57.77,0,*61
1483905792.1,37441,4.38,72536.5,-21.31,-57.21,-57.53,0,*61
1483905793.35,37442,4.38,72528.8,-21.31,-57.29,-57.37,0,*68
1483905794.63,37443,4.38,72532.8,-21.31,-57.61,-57.85,0,*6C
1483905795.9,37444,4.38,72534.0,-21.31,-57.21,-57.53,0,*64
1483905797.12,37445,4.38,72528.5,-21.35,-57.45,-57.85,0,*68
1483905798.39,37446,4.38,72546.5,-21.31,-57.29,-57.53,0,*6E
1483905799.63,37447,4.38,72538.8,-21.35,-57.29,-57.53,0,*6B
1483905800.88,37448,4.38,72534.5,-21.31,-57.07,-57.37,0,*6E
1483905802.13,37449,4.38,72532.0,-21.31,-57.07,-57.29,0,*60
1483905803.37,37450,4.38,72532.0,-21.35,-57.29,-57.61,0,*6C
1483905804.64,37451,4.38,72530.5,-21.31,-57.37,-57.61,0,*66
1483905805.86,37452,4.38,72526.5,-21.35,-57.15,-57.37,0,*62
1483905807.07,37453,4.38,72540.3,-21.35,-57.07,-57.37,0,*60
1483905808.33,37454,4.38,72534.0,-21.31,-56.59,-56.83,0,*67
1483905809.55,37455,4.38,72530.0,-21.35,-57.15,-57.45,0,*60
1483905810.76,37456,4.38,72522.3,-21.35,-56.91,-57.29,0,*64
1483905811.97,37457,4.38,72522.5,-21.35,-57.29,-57.45,0,*6D
1483905813.19,37458,4.38,72526.3,-21.35,-57.15,-57.45,0,*6D
1483905814.44,37459,4.38,72508.5,-21.31,-57.07,-57.37,0,*6E
1483905815.69,37460,4.38,72508.0,-21.31,-57.07,-57.29,0,*6B
1483905816.9,37461,4.38,72510.0,-21.35,-57.29,-57.45,0,*68
1483905818.16,37462,4.38,72512.0,-21.31,-56.59,-57.07,0,*6F
1483905819.37,37463,4.38,72520.0,-21.35,-57.07,-57.37,0,*63
1483905820.6,37464,4.38,72518.5,-21.35,-56.75,-57.07,0,*63
1483905821.87,37465,4.44,72522.0,-21.31,-56.13,-56.37,0,*64
1483905823.13,37466,4.38,72516.3,-21.31,-56.29,-56.37,0,*6E
1483905824.38,37467,4.38,72512.8,-21.31,-56.29,-56.59,0,*67
1483905825.66,37468,4.38,72522.3,-21.31,-56.51,-56.75,0,*69
1483905826.94,37469,4.38,72524.3,-21.31,-56.51,-56.75,0,*68
1483905828.21,37470,4.38,72530.8,-21.31,-56.51,-56.75,0,*60
1483905829.47,37471,4.38,72538.5,-21.31,-56.59,-56.99,0,*6B
1483905830.72,37472,4.38,72534.0,-21.31,-56.59,-56.75,0,*6A
1483905832.0,37473,4.38,72546.3,-21.31,-56.51,-56.59,0,*6D
1483905833.25,37474,4.38,72544.5,-21.31,-56.37,-56.83,0,*6D
1483905834.51,37475,4.38,72544.8,-21.31,-56.59,-56.83,0,*64
1483905835.79,37476,4.44,72552.0,-21.31,-56.51,-56.83,0,*6F
1483905837.07,37477,4.38,72564.3,-21.31,-56.51,-56.99,0,*65
1483905838.32,37478,4.44,72552.5,-21.29,-56.51,-56.91,0,*6B
1483905839.57,37479,4.38,72566.5,-21.31,-56.83,-57.21,0,*66
1483905840.79,37480,4.44,72574.3,-21.29,-57.15,-57.45,0,*65
1483905842.04,37481,4.44,72586.0,-21.31,-56.75,-57.21,0,*68
1483905843.27,37482,4.44,72568.5,-21.29,-56.83,-57.21,0,*6B
1483905844.52,37483,4.38,72550.5,-21.31,-56.83,-57.07,0,*67
1483905845.74,37484,4.38,72536.3,-21.29,-56.67,-57.21,0,*67
1483905846.99,37485,4.38,72538.5,-21.29,-56.51,-56.75,0,*63
1483905848.24,37486,4.38,72542.8,-21.29,-56.43,-56.75,0,*63
1483905849.49,37487,4.38,72592.5,-21.31,-56.83,-57.21,0,*67
1483905850.77,37488,4.38,72602.0,-21.31,-56.51,-56.75,0,*67
1483905851.99,37489,4.38,72584.3,-21.29,-56.67,-56.75,0,*6A
1483905853.24,37490,4.38,72566.8,-21.27,-56.75,-57.15,0,*68
1483905854.46,37491,4.38,72578.0,-21.29,-56.91,-57.15,0,*6D
1483905855.69,37492,4.38,72574.8,-21.29,-56.75,-56.99,0,*61
1483905856.94,37493,4.38,72574.5,-21.31,-56.83,-57.21,0,*62
1483905858.16,37494,4.38,72588.0,-21.29,-56.75,-57.15,0,*62
1483905859.38,37495,4.38,72578.8,-21.25,-56.67,-56.99,0,*69
1483905860.63,37496,4.38,72566.8,-21.27,-56.75,-57.15,0,*6E
1483905861.85,37497,4.38,72556.0,-21.29,-56.91,-57.21,0,*6C
1483905863.1,37498,4.38,72558.5,-21.27,-56.75,-57.15,0,*60
1483905864.32,37499,4.44,72558.0,-21.29,-56.67,-57.15,0,*6C
1483905865.53,37500,4.38,72550.3,-21.29,-56.91,-57.21,0,*63
1483905866.79,37501,4.38,72540.3,-21.31,-56.83,-57.37,0,*6F
1483905868.0,37502,4.38,72548.3,-21.29,-56.99,-57.21,0,*69
1483905869.22,37503,4.44,72548.3,-21.29,-56.91,-57.21,0,*60
1483905870.44,37504,4.38,72538.3,-21.29,-56.99,-57.29,0,*67
1483905871.66,37505,4.38,72532.8,-21.29,-56.99,-57.29,0,*66
1483905872.87,37506,4.38,72530.3,-21.29,-56.91,-57.21,0,*65
1483905874.12,37507,4.38,72538.3,-21.31,-57.07,-57.29,0,*6B
1483905875.34,37508,4.38,72540.3,-21.29,-56.91,-56.99,0,*69
1483905876.57,37509,4.38,72546.5,-21.29,-56.75,-57.15,0,*67
1483905877.79,37510,4.38,72552.0,-21.29,-56.91,-57.15,0,*65
1483905879.01,37511,4.44,72554.3,-21.29,-56.67,-57.15,0,*6D
1483905880.23,37512,4.38,72550.0,-21.29,-56.99,-57.29,0,*60
1483905881.47,37513,4.38,72552.8,-21.31,-57.07,-57.29,0,*6E
1483905882.72,37514,4.38,72532.8,-21.27,-56.75,-57.15,0,*65
1483905883.95,37515,4.38,72544.5,-21.29,-56.91,-57.15,0,*60
1483905885.17,37516,4.38,72542.8,-21.29,-56.67,-57.15,0,*6A
1483905886.39,37517,4.38,72552.0,-21.29,-56.91,-57.15,0,*62
1483905887.61,37518,4.38,72554.5,-21.29,-56.99,-57.21,0,*62
1483905888.85,37519,4.38,72554.8,-21.31,-56.99,-57.29,0,*62
1483905890.07,37520,4.38,72558.5,-21.29,-56.91,-57.21,0,*61
1483905891.29,37521,4.38,72558.3,-21.29,-56.91,-57.21,0,*60
1483905892.51,37522,4.38,72570.8,-21.29,-57.15,-57.29,0,*66
1483905893.76,37523,4.38,72566.3,-21.29,-57.21,-57.53,0,*6D
1483905894.98,37524,4.38,72560.5,-21.29,-56.99,-57.21,0,*6D
1483905896.2,37525,4.38,72560.0,-21.29,-57.15,-57.29,0,*61
1483905897.47,37526,4.38,72560.0,-21.31,-57.29,-57.53,0,*69
1483905898.72,37527,4.38,72558.3,-21.31,-56.75,-56.99,0,*67
1483905899.97,37528,4.38,72562.5,-21.29,-56.43,-56.91,0,*6C
1483905901.23,37529,4.38,72570.8,-21.31,-56.59,-57.07,0,*61
1483905902.46,37530,4.38,72544.8,-21.29,-56.75,-57.15,0,*6D
1483905903.68,37531,4.38,72554.8,-21.29,-56.91,-57.15,0,*66
1483905904.93,37532,4.38,72568.8,-21.31,-56.99,-57.21,0,*63
1483905906.17,37533,4.38,72566.5,-21.29,-56.51,-56.99,0,*6D
1483905907.43,37534,4.38,72546.5,-21.29,-56.43,-56.75,0,*6B
1483905908.67,37535,4.38,72552.8,-21.29,-56.29,-56.51,0,*60
1483905909.95,37536,4.38,72536.0,-21.31,-56.51,-56.83,0,*6A
1483905911.2,37537,4.38,72544.3,-21.29,-56.51,-56.99,0,*69
1483905912.42,37538,4.38,72546.5,-21.29,-56.29,-56.67,0,*68
1483905913.69,37539,4.38,72538.8,-21.31,-56.29,-56.51,0,*65
1483905914.94,37540,4.38,72550.5,-21.29,-56.29,-56.43,0,*61
1483905916.22,37541,4.38,72538.3,-21.27,-56.51,-56.91,0,*6E
1483905917.49,37542,4.38,72544.5,-21.27,-56.51,-56.91,0,*6D
1483905918.76,37543,4.38,72540.5,-21.27,-56.29,-56.43,0,*6C
1483905920.01,37544,4.38,72546.5,-21.25,-56.51,-56.91,0,*69
1483905921.28,37545,4.38,72576.8,-21.27,-56.43,-56.91,0,*69
1483905922.53,37546,4.38,72578.5,-21.27,-56.75,-57.15,0,*62
1483905923.78,37547,4.38,72548.0,-21.25,-56.21,-56.43,0,*62
1483905925.07,37548,4.38,72552.8,-21.27,-55.67,-55.97,0,*64
1483905926.34,37549,4.38,72550.3,-21.27,-55.29,-55.67,0,*60
1483905927.59,37550,4.38,72522.5,-21.25,-55.75,-56.21,0,*62
1483905928.86,37551,4.38,72516.5,-21.25,-55.75,-55.97,0,*6D
1483905930.11,37552,4.38,72514.8,-21.25,-56.21,-56.51,0,*65
1483905931.33,37553,4.38,72506.0,-21.21,-56.21,-56.37,0,*60
1483905932.57,37554,4.38,72488.3,-21.21,-56.13,-56.37,0,*66
1483905933.83,37555,4.38,72488.5,-21.21,-55.97,-56.13,0,*6E
1483905935.09,37556,4.38,72492.5,-21.21,-55.97,-56.43,0,*68
1483905936.35,37557,4.38,72500.8,-21.21,-55.97,-56.13,0,*6C
1483905937.61,37558,4.38,72486.8,-21.21,-55.89,-55.97,0,*63
1483905938.85,37559,4.38,72498.0,-21.21,-55.97,-56.21,0,*63
1483905940.11,37560,4.38,72502.3,-21.21,-56.13,-56.43,0,*62
1483905941.36,37561,4.38,72550.3,-21.21,-55.89,-56.21,0,*67
1483905942.65,37562,4.38,72540.8,-21.19,-55.13,-55.35,0,*6A
1483905943.94,37563,4.38,72558.0,-21.19,-55.35,-55.67,0,*68
1483905945.23,37564,4.38,72556.5,-21.19,-55.35,-55.67,0,*6F
1483905946.48,37565,4.38,72568.0,-21.17,-55.51,-55.81,0,*6A
1483905947.77,37566,4.38,72568.8,-21.15,-55.89,-56.13,0,*66
1483905949.03,37567,4.38,72564.3,-21.17,-56.05,-56.13,0,*62
1483905950.29,37568,4.38,72544.3,-21.17,-55.67,-55.59,0,*67
1483905951.57,37569,4.38,72546.3,-21.15,-55.51,-55.81,0,*64
1483905952.87,37570,4.38,72532.8,-21.15,-55.51,-55.59,0,*69
1483905954.16,37571,4.38,72504.5,-21.15,-55.05,-55.35,0,*63
1483905955.46,37572,4.38,72512.3,-21.11,-54.83,-55.05,0,*68
1483905956.73,37573,4.38,72512.0,-21.13,-55.51,-55.75,0,*62
1483905958.0,37574,4.44,72526.5,-21.11,-55.81,-56.05,0,*6E
1483905959.3,37575,4.38,72520.8,-21.11,-55.51,-55.51,0,*60
1483905960.6,37576,4.38,72532.5,-21.11,-55.43,-55.75,0,*66
1483905961.88,37577,4.44,72522.5,-21.09,-55.13,-55.35,0,*6F
1483905963.15,37578,4.38,72550.3,-21.09,-55.51,-55.89,0,*61
1483905964.39,37579,4.38,72542.5,-21.09,-55.97,-56.21,0,*6B
1483905965.61,37580,4.38,72540.3,-21.09,-56.21,-56.59,0,*6C
1483905966.84,37581,4.38,72538.0,-21.09,-56.59,-56.83,0,*65
1483905968.09,37582,4.38,72536.3,-21.09,-56.43,-56.83,0,*6D
1483905969.34,37583,4.38,72534.5,-21.09,-56.43,-56.83,0,*6C
1483905970.59,37584,4.38,72534.0,-21.11,-56.75,-56.99,0,*6C
1483905971.82,37585,4.38,72514.8,-21.09,-56.37,-56.83,0,*69
1483905973.1,37586,4.38,72508.0,-21.07,-56.43,-56.83,0,*67
1483905974.34,37587,4.44,72514.0,-21.07,-56.21,-56.67,0,*68
1483905975.56,37588,4.38,72512.0,-21.09,-56.37,-56.67,0,*6E
1483905976.81,37589,4.38,72528.5,-21.07,-56.59,-56.83,0,*63
1483905978.06,37590,4.38,72530.0,-21.07,-56.59,-56.99,0,*60
1483905979.31,37591,4.38,72544.5,-21.07,-56.83,-56.91,0,*6E
1483905980.56,37592,4.38,72566.8,-21.07,-56.83,-56.99,0,*65
1483905981.81,37593,4.44,72574.5,-21.09,-56.43,-56.67,0,*67
1483905983.09,37594,4.38,72552.0,-21.07,-56.43,-56.83,0,*64
1483905984.3,37595,4.38,72548.3,-21.09,-56.67,-56.91,0,*6E
1483905985.53,37596,4.38,72540.8,-21.09,-56.83,-57.15,0,*6A
1483905986.74,37597,4.38,72548.5,-21.09,-56.91,-57.37,0,*68
1483905987.96,37598,4.38,72564.3,-21.09,-56.99,-57.37,0,*6F
1483905989.18,37599,4.38,72556.3,-21.09,-57.15,-57.21,0,*6C
1483905990.43,37600,4.38,72560.5,-21.11,-57.07,-57.45,0,*67
1483905991.68,37601,4.38,72570.5,-21.11,-56.75,-57.07,0,*64
1483905992.92,37602,4.38,72578.3,-21.11,-56.99,-57.21,0,*61
1483905994.16,37603,4.38,72572.0,-21.11,-56.99,-57.29,0,*68
1483905995.41,37604,4.38,72568.3,-21.11,-57.07,-57.45,0,*63
1483905996.65,37605,4.38,72564.8,-21.11,-57.07,-57.21,0,*60
1483905997.87,37606,4.38,72564.3,-21.13,-57.07,-57.29,0,*69
1483905999.11,37607,4.38,72558.5,-21.11,-56.99,-57.29,0,*6C
1483906000.32,37608,4.44,72554.5,-21.13,-56.99,-57.21,0,*69
1483906001.54,37609,4.38,72558.5,-21.13,-56.91,-57.21,0,*60
1483906002.78,37610,4.38,72558.8,-21.13,-56.51,-56.99,0,*66
1483906004.05,37611,4.38,72586.8,-21.11,-56.51,-56.99,0,*65
1483906005.27,37612,4.38,72580.0,-21.13,-56.75,-56.99,0,*62
1483906006.51,37613,4.38,72562.0,-21.11,-56.91,-57.21,0,*69
1483906007.75,37614,4.44,72552.5,-21.11,-56.99,-57.29,0,*6E
1483906008.97,37615,4.38,72554.3,-21.13,-56.91,-57.07,0,*69
1483906010.19,37616,4.44,72580.0,-21.13,-56.91,-57.21,0,*6E
1483906011.42,37617,4.38,72600.3,-21.11,-56.99,-57.29,0,*6D
1483906012.67,37618,4.44,72606.5,-21.11,-56.99,-57.07,0,*6E
1483906013.89,37619,4.38,72588.0,-21.13,-56.67,-57.07,0,*6C
1483906015.1,37620,4.44,72568.3,-21.13,-56.67,-56.99,0,*60
1483906016.35,37621,4.38,72564.5,-21.11,-56.75,-56.99,0,*60
1483906017.57,37622,4.38,72564.8,-21.13,-56.91,-57.21,0,*69
1483906018.78,37623,4.38,72558.8,-21.13,-56.67,-56.99,0,*63
1483906020.0,37624,4.38,72560.5,-21.13,-56.67,-57.07,0,*62
1483906021.21,37625,4.44,72566.5,-21.13,-56.91,-56.99,0,*6C
1483906022.44,37626,4.38,72556.0,-21.13,-56.59,-57.07,0,*6D
1483906023.68,37627,4.38,72552.8,-21.15,-56.99,-56.99,0,*60
1483906024.93,37628,4.38,72548.3,-21.15,-56.99,-57.15,0,*6A
1483906026.18,37629,4.38,72540.3,-21.15,-57.07,-57.37,0,*6D
1483906027.45,37630,4.38,72542.3,-21.15,-57.29,-57.61,0,*6A
1483906028.72,37631,4.38,72540.3,-21.15,-57.15,-57.53,0,*65
1483906029.97,37632,4.38,72536.8,-21.15,-57.07,-57.29,0,*68
1483906031.24,37633,4.44,72554.0,-21.15,-57.15,-57.53,0,*67
1483906032.48,37634,4.38,72550.5,-21.15,-57.07,-57.37,0,*61
1483906033.74,37635,4.38,72556.5,-21.15,-56.75,-57.07,0,*67
1483906034.98,37636,4.38,72558.5,-21.15,-56.99,-57.29,0,*6A
1483906036.23,37637,4.38,72566.0,-21.15,-57.15,-57.37,0,*61
1483906037.5,37638,4.38,72566.8,-21.15,-57.15,-57.53,0,*6C
1483906038.77,37639,4.38,72572.5,-21.15,-57.37,-57.61,0,*6C
1483906040.02,37640,4.38,72572.3,-21.17,-57.15,-57.53,0,*61
1483906041.23,37641,4.38,72566.5,-21.17,-57.15,-57.37,0,*62
1483906042.44,37642,4.38,72558.3,-21.17,-56.99,-57.29,0,*6B
1483906043.69,37643,4.38,72568.5,-21.17,-57.15,-57.53,0,*62
1483906044.9,37644,4.38,72568.0,-21.17,-57.07,-57.37,0,*64
1483906046.18,37645,4.38,72564.8,-21.19,-57.21,-57.61,0,*6C
1483906047.44,37646,4.44,72572.0,-21.19,-57.45,-57.61,0,*6D
1483906048.71,37647,4.44,72586.8,-21.19,-57.21,-57.61,0,*6E
1483906049.96,37648,4.38,72570.5,-21.19,-57.15,-57.37,0,*65
1483906051.23,37649,4.38,72566.3,-21.19,-57.21,-57.61,0,*60
1483906052.45,37650,4.38,72570.0,-21.21,-57.21,-57.45,0,*65
1483906053.66,37651,4.38,72570.8,-21.17,-56.99,-57.29,0,*69
1483906054.88,37652,4.38,72566.8,-21.17,-56.99,-57.15,0,*65
1483906056.12,37653,4.38,72560.3,-21.19,-57.15,-57.45,0,*6A
1483906057.37,37654,4.38,72554.0,-21.19,-57.21,-57.45,0,*6A
1483906058.62,37655,4.38,72568.3,-21.19,-56.91,-57.15,0,*64
1483906059.86,37656,4.38,72572.0,-21.19,-56.67,-56.91,0,*63
1483906061.08,37657,4.38,72558.8,-21.17,-56.83,-57.07,0,*68
1483906062.33,37658,4.38,72538.0,-21.19,-57.07,-57.21,0,*60
1483906063.58,37659,4.38,72562.5,-21.19,-56.91,-57.15,0,*68
1483906064.82,37660,4.38,72568.8,-21.19,-57.07,-57.15,0,*6C
1483906066.07,37661,4.38,72552.3,-21.19,-56.59,-56.91,0,*6A
1483906067.32,37662,4.38,72580.0,-21.19,-56.59,-57.07,0,*67
1483906068.58,37663,4.38,72564.5,-21.19,-56.59,-57.07,0,*66
1483906069.82,37664,4.38,72544.5,-21.19,-56.67,-57.15,0,*6F
1483906071.06,37665,4.38,72558.5,-21.19,-56.67,-56.91,0,*63
1483906072.28,37666,4.38,72564.3,-21.21,-56.67,-57.07,0,*65
1483906073.52,37667,4.38,72586.0,-21.19,-56.67,-56.91,0,*61
1483906074.76,37668,4.38,72570.8,-21.19,-56.37,-56.67,0,*62
1483906076.06,37669,4.38,72556.8,-21.19,-55.75,-55.97,0,*6A
1483906077.29,37670,4.38,72544.3,-21.17,-55.81,-56.05,0,*6F
1483906078.54,37671,4.38,72546.3,-21.17,-56.05,-56.29,0,*6F
1483906079.8,37672,4.38,72528.5,-21.15,-55.81,-56.05,0,*6F
1483906081.07,37673,4.38,72520.5,-21.17,-56.13,-56.51,0,*65
1483906082.34,37674,4.38,72528.8,-21.15,-56.13,-56.37,0,*60
1483906083.61,37675,4.38,72544.5,-21.11,-56.21,-56.51,0,*64
1483906084.86,37676,4.38,72538.0,-21.15,-56.59,-56.99,0,*68
1483906086.13,37677,4.38,72536.5,-21.15,-56.51,-56.99,0,*61
1483906087.38,37678,4.38,72546.5,-21.15,-56.83,-57.07,0,*67
1483906088.6,37679,4.38,72538.5,-21.17,-56.99,-57.15,0,*6C
1483906089.83,37680,4.38,72524.8,-21.17,-56.75,-57.07,0,*6B
1483906091.08,37681,4.38,72504.3,-21.15,-56.99,-57.15,0,*69
1483906092.35,37682,4.38,72532.8,-21.15,-56.51,-56.75,0,*69
1483906093.63,37683,4.38,72550.5,-21.15,-56.51,-56.75,0,*68
1483906094.87,37684,4.38,72550.3,-21.15,-56.29,-56.59,0,*6E
1483906096.12,37685,4.38,72538.5,-21.17,-56.29,-56.51,0,*65
1483906097.37,37686,4.38,72522.0,-21.15,-56.37,-56.83,0,*64